LiveATC.Net - Listen to live air traffic control over the Internet!


ICAO: KCTJ  IATA: CTJ   Airport: West Georgia Regional Airport-O V Gray Field
City: Carrollton   State/Province: Georgia
Country: United States   Continent: North America
KCTJ METAR Weather: KCTJ 242315Z AUTO 06004KT 10SM SCT055 SCT070 BKN110 27/21 A3005 RMK AO2 LTG DSNT SW AND W T02650210
KCTJ Flight Activity (FlightAware)
KCTJ Airport Info   (iFlightPlanner)
KCTJ VFR Sectional Chart   (iFlightPlanner) 
KCTJ IFR Low Chart   (iFlightPlanner) 

KCTJ/KLGC CTAF
Feed Status: UP   Listeners: 0
Listen in your browser - HTML5 player (in browser, HTML5)
Click here to listen with your own player (launches your MP3 player)
KCTJ/KLGC CTAF Audio Archives
FacilityFrequency
KCTJ/KLGC CTAF122.975

NOTICE

Unauthorized use prohibited. See LiveATC.net Terms of Service


Airport/ARTCC Code
Frequency Search
(e.g., 124.400, 128.75)
Site-wide search
 


Browse LiveATC Feeds
Top 50 LiveATC Feeds
LiveATC Feed Map
Bad Weather Areas

LiveATC FAQ
Offer LiveATC feed
Contact LiveATC.net
Press Inquiries

LiveATC on iPhone
LiveATC on Android

Windows Phone
Windows 8/10

LiveATC Mobile
(Mobile browser)

ATC Audio Archives
Interesting Recordings

LiveATC Forums


Home Page
About LiveATC.net
Make a Donation
Terms of Use
Privacy Policy

Canadian Air Freqs

AIRMETs/SIGMETs

FAA Airport Status
Nat'l Airspace Status
Arrival Demand Charts


Server Software By:
Icecast.org
Liquidsoap